Simultaneous Nadir Overpasses (SNOs) Predictions

Prediction of SNOs between GOES-16 and METOP-B Satellite Orbit:

Table of predicted SNOs for the next 14.0 days since TLE Epoch: 7/26/2018
Index Date Time (GOES-16) GOES-16 Lat,Lon METOP-B Lat,Lon Distance(km) Time Diff (sec)
1 07/28/2018 02:34:15 -0.01, -75.18 -0.19, -76.11 105.45 80
2 07/29/2018 02:10:55 -0.00, -75.19 0.92, -71.12 464.88 80
3 07/30/2018 14:32:25 0.00, -75.22 0.08, -75.68 51.58 80
4 08/02/2018 02:28:04 -0.00, -75.25 0.01, -75.28 3.31 80
5 08/04/2018 14:26:14 0.00, -75.30 -0.12, -74.85 52.75 80
6 08/06/2018 02:47:52 -0.01, -75.32 -0.96, -79.43 468.70 80
7 08/07/2018 02:24:32 -0.01, -75.34 0.21, -74.45 102.46 80
8 08/08/2018 14:46:02 0.02, -75.38 0.84, -79.00 412.97 80
9 08/09/2018 14:22:42 0.01, -75.40 -0.33, -74.02 158.40 80




NCC Satellite Simultaneous Nadir Overpasses (SNOs) Prediction Service
